Tracking 31027 objects as of 19-Jul-2025
HD Live streaming from Space Station
objects crossing your sky now

CZ-4 DEB

Track CZ-4 DEB now!
10-day predictions


NORAD ID: 20888
Int'l Code: 1990-081AY
Perigee: 675.0 km
Apogee: 937.2 km
Inclination: 99.2 °
Period: 100.9 minutes
Semi major axis: 7177 km
RCS: 0.1391 m2 (medium)
Launch date: September 3, 1990
Source: People's Republic of China (PRC)
Launch site: Taiyaun Space Center, China (TSC)

Note: This is SATELLITE DEBRIS
Your satellite tracking list
MOLNIYA 1-86
Track 1 satellite(s)




NASA's NSSDC Master Catalog

Two Line Element Set (TLE):
1 20888U 90081AY  25199.80087962  .00002851  00000-0  98186-3 0  9991
2 20888  99.2261  40.3913 0182660 117.0896 244.9048 14.27834265779873
Source of the keplerian elements: AFSPC